Time,TemperatureF,DewpointF,PressureIn,WindDirection,WindDirectionDegrees,WindSpeedMPH,WindSpeedGustMPH,Humidity,HourlyPrecipIn,Conditions,Clouds,dailyrainin,SoftwareType,DateUTC
2013-12-22 00:01:00,78.5,78.5,29.99,ESE,120,12.0,12.0,100,0.00,,,0.00,Wunderground v.1.15,2013-12-22 05:01:00,
2013-12-22 00:05:00,78.5,78.5,29.99,East,80,13.0,13.0,100,0.00,,,0.00,Wunderground v.1.15,2013-12-22 05:05:00,
2013-12-22 00:10:00,78.5,78.5,29.99,ESE,106,12.0,12.0,100,0.00,,,0.00,Wunderground v.1.15,2013-12-22 05:10:00,
2013-12-22 00:15:00,78.3,78.3,29.99,ESE,113,10.0,12.0,100,0.00,,,0.00,Wunderground v.1.15,2013-12-22 05:15:00,
2013-12-22 00:25:00,78.5,78.5,29.99,ESE,113,11.0,17.0,100,0.00,,,0.00,Wunderground v.1.15,2013-12-22 05:25:00,
2013-12-22 00:30:00,78.5,78.5,29.98,ESE,107,12.0,12.0,100,0.00,,,0.00,Wunderground v.1.15,2013-12-22 05:30:00,
2013-12-22 00:40:00,78.5,78.5,29.98,ESE,123,11.0,12.0,100,0.00,,,0.00,Wunderground v.1.15,2013-12-22 05:40:00,
2013-12-22 00:45:00,78.5,78.5,29.98,ESE,103,11.0,13.0,100,0.00,,,0.00,Wunderground v.1.15,2013-12-22 05:45:00,
2013-12-22 00:50:00,78.5,78.5,29.98,SE,128,10.0,13.0,100,0.00,,,0.00,Wunderground v.1.15,2013-12-22 05:50:00,
2013-12-22 01:00:00,78.5,78.5,29.98,ESE,113,11.0,11.0,100,0.00,,,0.00,Wunderground v.1.15,2013-12-22 06:00:00,
2013-12-22 01:05:00,78.5,78.5,29.98,ENE,72,11.0,11.0,100,0.00,,,0.00,Wunderground v.1.15,2013-12-22 06:05:00,
2013-12-22 01:10:00,78.5,78.5,29.98,ESE,116,12.0,15.0,100,0.00,,,0.00,Wunderground v.1.15,2013-12-22 06:10:00,
2013-12-22 01:20:00,78.5,78.5,29.98,ESE,121,12.0,12.0,100,0.00,,,0.00,Wunderground v.1.15,2013-12-22 06:20:00,
2013-12-22 01:25:00,78.5,78.5,29.98,East,99,12.0,14.0,100,0.00,,,0.00,Wunderground v.1.15,2013-12-22 06:25:00,
2013-12-22 01:30:00,78.5,78.5,29.98,ESE,112,13.0,13.0,100,0.00,,,0.00,Wunderground v.1.15,2013-12-22 06:30:00,
2013-12-22 01:40:00,78.5,78.5,29.98,ESE,110,12.0,12.0,100,0.00,,,0.00,Wunderground v.1.15,2013-12-22 06:40:00,
2013-12-22 01:45:00,78.6,78.6,29.98,ESE,112,13.0,13.0,100,0.00,,,0.00,Wunderground v.1.15,2013-12-22 06:45:00,
2013-12-22 01:50:00,78.6,78.6,29.98,ESE,107,12.0,12.0,100,0.00,,,0.00,Wunderground v.1.15,2013-12-22 06:50:00,
2013-12-22 02:00:00,78.6,78.6,29.98,ESE,117,10.0,10.0,100,0.00,,,0.00,Wunderground v.1.15,2013-12-22 07:00:00,
2013-12-22 02:05:00,78.5,78.5,29.98,ESE,112,10.0,10.0,100,0.00,,,0.00,Wunderground v.1.15,2013-12-22 07:05:00,
2013-12-22 02:10:00,78.6,78.6,29.98,ESE,119,9.0,9.0,100,0.00,,,0.00,Wunderground v.1.15,2013-12-22 07:10:00,
2013-12-22 02:20:00,78.5,78.5,29.98,ESE,103,11.0,12.0,100,0.00,,,0.00,Wunderground v.1.15,2013-12-22 07:20:00,
2013-12-22 02:25:00,78.5,78.5,29.98,ESE,121,11.0,13.0,100,0.00,,,0.00,Wunderground v.1.15,2013-12-22 07:25:00,
2013-12-22 02:30:00,78.5,78.5,29.97,East,89,9.0,10.0,100,0.00,,,0.00,Wunderground v.1.15,2013-12-22 07:30:00,
2013-12-22 02:40:00,78.5,78.5,29.97,ESE,113,9.0,10.0,100,0.00,,,0.00,Wunderground v.1.15,2013-12-22 07:40:00,
2013-12-22 02:45:00,78.6,78.6,29.97,ESE,106,9.0,13.0,100,0.00,,,0.00,Wunderground v.1.15,2013-12-22 07:45:00,
2013-12-22 02:50:00,78.5,78.5,29.97,East,97,10.0,12.0,100,0.00,,,0.00,Wunderground v.1.15,2013-12-22 07:50:00,
2013-12-22 03:00:00,78.5,78.5,29.97,East,100,11.0,12.0,100,0.00,,,0.00,Wunderground v.1.15,2013-12-22 08:00:00,
2013-12-22 03:05:00,78.5,78.5,29.97,SE,145,12.0,14.0,100,0.00,,,0.00,Wunderground v.1.15,2013-12-22 08:05:00,
2013-12-22 03:10:00,78.5,78.5,29.97,East,96,12.0,12.0,100,0.00,,,0.00,Wunderground v.1.15,2013-12-22 08:10:00,
2013-12-22 03:20:00,78.5,78.5,29.97,East,83,10.0,10.0,100,0.00,,,0.00,Wunderground v.1.15,2013-12-22 08:20:00,
2013-12-22 03:25:00,78.5,78.5,29.97,ESE,110,11.0,11.0,100,0.00,,,0.00,Wunderground v.1.15,2013-12-22 08:25:00,
2013-12-22 03:30:00,78.5,78.5,29.96,ESE,110,10.0,10.0,100,0.00,,,0.00,Wunderground v.1.15,2013-12-22 08:30:00,
2013-12-22 03:40:00,78.5,78.5,29.96,ESE,106,11.0,17.0,100,0.00,,,0.00,Wunderground v.1.15,2013-12-22 08:40:00,
2013-12-22 03:45:00,78.5,78.5,29.96,ESE,120,13.0,17.0,100,0.00,,,0.00,Wunderground v.1.15,2013-12-22 08:45:00,
2013-12-22 03:50:00,78.5,78.5,29.96,SE,127,13.0,13.0,100,0.00,,,0.00,Wunderground v.1.15,2013-12-22 08:50:00,
2013-12-22 03:55:00,78.5,78.5,29.96,SE,137,11.0,13.0,100,0.00,,,0.00,Wunderground v.1.15,2013-12-22 08:55:00,
2013-12-22 04:00:00,78.5,78.5,29.97,SE,127,10.0,10.0,100,0.00,,,0.00,Wunderground v.1.15,2013-12-22 09:00:00,
2013-12-22 04:10:00,78.5,78.5,29.97,SE,141,10.0,11.0,100,0.00,,,0.00,Wunderground v.1.15,2013-12-22 09:10:00,
2013-12-22 04:15:00,78.5,78.5,29.97,ESE,104,12.0,12.0,100,0.00,,,0.00,Wunderground v.1.15,2013-12-22 09:15:00,
2013-12-22 04:25:00,78.5,78.5,29.97,ESE,116,13.0,13.0,100,0.00,,,0.00,Wunderground v.1.15,2013-12-22 09:25:00,
2013-12-22 04:30:00,78.5,78.5,29.97,SE,127,13.0,13.0,100,0.00,,,0.00,Wunderground v.1.15,2013-12-22 09:30:00,
2013-12-22 04:35:00,78.5,78.5,29.97,SE,131,13.0,13.0,100,0.00,,,0.00,Wunderground v.1.15,2013-12-22 09:35:00,
2013-12-22 04:45:00,78.5,78.5,29.97,ESE,106,13.0,13.0,100,0.00,,,0.00,Wunderground v.1.15,2013-12-22 09:45:00,
2013-12-22 04:50:00,78.6,78.6,29.97,SE,130,12.0,17.0,100,0.00,,,0.00,Wunderground v.1.15,2013-12-22 09:50:00,
2013-12-22 04:55:00,78.5,78.5,29.97,SSE,152,12.0,17.0,100,0.00,,,0.00,Wunderground v.1.15,2013-12-22 09:55:00,
2013-12-22 05:05:00,78.5,78.5,29.97,ESE,107,11.0,11.0,100,0.00,,,0.00,Wunderground v.1.15,2013-12-22 10:05:00,
2013-12-22 05:10:00,78.3,78.3,29.97,ESE,121,11.0,13.0,100,0.00,,,0.00,Wunderground v.1.15,2013-12-22 10:10:00,
2013-12-22 05:20:00,78.5,78.5,29.97,East,89,10.0,10.0,100,0.00,,,0.00,Wunderground v.1.15,2013-12-22 10:20:00,
2013-12-22 05:25:00,78.5,78.5,29.97,ESE,109,9.0,10.0,100,0.00,,,0.00,Wunderground v.1.15,2013-12-22 10:25:00,
2013-12-22 05:30:00,78.5,78.5,29.98,SE,134,10.0,10.0,100,0.00,,,0.00,Wunderground v.1.15,2013-12-22 10:30:00,
2013-12-22 05:35:00,78.5,78.5,29.98,ESE,116,10.0,10.0,100,0.00,,,0.00,Wunderground v.1.15,2013-12-22 10:35:00,
2013-12-22 05:40:00,78.5,78.5,29.98,SE,130,9.0,11.0,100,0.00,,,0.00,Wunderground v.1.15,2013-12-22 10:40:00,
2013-12-22 05:50:00,78.3,78.3,29.98,ESE,123,11.0,11.0,100,0.00,,,0.00,Wunderground v.1.15,2013-12-22 10:50:00,
2013-12-22 05:55:00,78.5,78.5,29.98,ESE,116,12.0,12.0,100,0.00,,,0.00,Wunderground v.1.15,2013-12-22 10:55:00,
2013-12-22 06:05:00,78.5,78.5,29.98,ESE,103,12.0,12.0,100,0.00,,,0.00,Wunderground v.1.15,2013-12-22 11:05:00,
2013-12-22 06:10:00,78.3,78.3,29.98,ESE,119,11.0,11.0,100,0.00,,,0.00,Wunderground v.1.15,2013-12-22 11:10:00,
2013-12-22 06:15:00,78.1,78.1,29.98,SE,127,10.0,18.0,100,0.00,,,0.00,Wunderground v.1.15,2013-12-22 11:15:00,
2013-12-22 06:25:00,78.3,78.3,29.98,SE,136,10.0,10.0,100,0.00,,,0.00,Wunderground v.1.15,2013-12-22 11:25:00,
2013-12-22 06:30:00,78.3,78.3,29.99,ESE,120,10.0,10.0,100,0.00,,,0.00,Wunderground v.1.15,2013-12-22 11:30:00,
2013-12-22 06:35:00,78.3,78.3,29.99,ESE,116,11.0,14.0,100,0.00,,,0.00,Wunderground v.1.15,2013-12-22 11:35:00,
2013-12-22 06:45:00,78.3,78.3,29.99,SE,124,10.0,11.0,100,0.00,,,0.00,Wunderground v.1.15,2013-12-22 11:45:00,
2013-12-22 06:50:00,78.3,78.3,29.99,SE,144,9.0,9.0,100,0.00,,,0.00,Wunderground v.1.15,2013-12-22 11:50:00,
2013-12-22 06:55:00,78.3,78.3,29.99,ESE,112,10.0,11.0,100,0.00,,,0.00,Wunderground v.1.15,2013-12-22 11:55:00,
2013-12-22 07:05:00,78.5,78.5,29.99,SE,128,11.0,11.0,100,0.00,,,0.00,Wunderground v.1.15,2013-12-22 12:05:00,
2013-12-22 07:10:00,78.5,78.5,29.99,ESE,120,12.0,12.0,100,0.00,,,0.00,Wunderground v.1.15,2013-12-22 12:10:00,
2013-12-22 07:15:00,78.3,78.3,30.00,SE,124,11.0,12.0,100,0.00,,,0.00,Wunderground v.1.15,2013-12-22 12:15:00,
2013-12-22 07:20:00,78.5,78.5,30.00,ESE,116,12.0,14.0,100,0.00,,,0.00,Wunderground v.1.15,2013-12-22 12:20:00,
2013-12-22 07:25:00,78.5,78.5,30.00,ESE,116,12.0,14.0,100,0.00,,,0.00,Wunderground v.1.15,2013-12-22 12:25:00,
2013-12-22 07:35:00,78.6,78.6,30.00,ESE,110,11.0,11.0,100,0.00,,,0.00,Wunderground v.1.15,2013-12-22 12:35:00,
2013-12-22 07:40:00,78.6,78.6,30.00,ESE,116,11.0,11.0,100,0.00,,,0.00,Wunderground v.1.15,2013-12-22 12:40:00,
2013-12-22 07:45:00,78.6,78.6,30.00,ESE,110,11.0,11.0,100,0.00,,,0.00,Wunderground v.1.15,2013-12-22 12:45:00,
2013-12-22 07:55:00,78.8,78.8,30.00,SE,126,11.0,12.0,100,0.00,,,0.00,Wunderground v.1.15,2013-12-22 12:55:00,
2013-12-22 08:00:00,78.8,78.8,30.01,SE,133,11.0,13.0,100,0.00,,,0.00,Wunderground v.1.15,2013-12-22 13:00:00,
2013-12-22 08:05:00,78.8,78.8,30.01,ESE,117,11.0,13.0,100,0.00,,,0.00,Wunderground v.1.15,2013-12-22 13:05:00,
2013-12-22 08:10:00,79.0,79.0,30.01,ESE,106,11.0,11.0,100,0.00,,,0.00,Wunderground v.1.15,2013-12-22 13:10:00,
2013-12-22 08:20:00,79.2,79.2,30.01,ESE,109,11.0,11.0,100,0.00,,,0.00,Wunderground v.1.15,2013-12-22 13:20:00,
2013-12-22 08:25:00,79.2,79.2,30.01,SE,124,10.0,12.0,100,0.00,,,0.00,Wunderground v.1.15,2013-12-22 13:25:00,
2013-12-22 08:30:00,79.4,79.4,30.02,ESE,119,9.0,9.0,100,0.00,,,0.00,Wunderground v.1.15,2013-12-22 13:30:00,
2013-12-22 08:35:00,79.6,79.6,30.02,SE,141,8.0,9.0,100,0.00,,,0.00,Wunderground v.1.15,2013-12-22 13:35:00,
2013-12-22 08:45:00,79.6,79.6,30.03,ESE,107,9.0,11.0,100,0.00,,,0.00,Wunderground v.1.15,2013-12-22 13:45:00,
2013-12-22 08:50:00,79.6,79.6,30.03,ESE,109,10.0,10.0,100,0.00,,,0.00,Wunderground v.1.15,2013-12-22 13:50:00,
2013-12-22 08:55:00,79.6,79.6,30.03,East,97,11.0,12.0,100,0.00,,,0.00,Wunderground v.1.15,2013-12-22 13:55:00,
2013-12-22 09:05:00,79.2,79.2,30.03,SSE,148,11.0,17.0,100,0.00,,,0.00,Wunderground v.1.15,2013-12-22 14:05:00,
2013-12-22 09:10:00,79.2,79.2,30.03,SE,136,11.0,13.0,100,0.00,,,0.00,Wunderground v.1.15,2013-12-22 14:10:00,
2013-12-22 09:15:00,79.8,79.8,30.03,ESE,121,11.0,13.0,100,0.00,,,0.00,Wunderground v.1.15,2013-12-22 14:15:00,
2013-12-22 09:25:00,79.9,79.9,30.03,SSE,154,9.0,13.0,100,0.00,,,0.00,Wunderground v.1.15,2013-12-22 14:25:00,
2013-12-22 09:30:00,79.9,79.9,30.03,ESE,121,10.0,10.0,100,0.00,,,0.00,Wunderground v.1.15,2013-12-22 14:30:00,
2013-12-22 09:35:00,79.9,79.9,30.03,SE,126,13.0,16.0,100,0.00,,,0.00,Wunderground v.1.15,2013-12-22 14:35:00,
2013-12-22 09:40:00,80.1,80.1,30.03,SE,126,11.0,11.0,100,0.00,,,0.00,Wunderground v.1.15,2013-12-22 14:40:00,
2013-12-22 09:50:00,80.1,80.1,30.03,ESE,109,11.0,11.0,100,0.00,,,0.00,Wunderground v.1.15,2013-12-22 14:50:00,
2013-12-22 09:55:00,80.3,80.3,30.03,SE,136,10.0,11.0,100,0.00,,,0.00,Wunderground v.1.15,2013-12-22 14:55:00,
2013-12-22 10:00:00,80.3,80.3,30.03,ESE,117,9.0,9.0,100,0.00,,,0.00,Wunderground v.1.15,2013-12-22 15:00:00,
2013-12-22 10:10:00,80.3,80.3,30.03,ESE,116,10.0,10.0,100,0.00,,,0.00,Wunderground v.1.15,2013-12-22 15:10:00,
2013-12-22 10:15:00,80.3,80.3,30.04,SE,138,9.0,10.0,100,0.00,,,0.00,Wunderground v.1.15,2013-12-22 15:15:00,
2013-12-22 10:20:00,80.3,80.3,30.04,ESE,119,8.0,8.0,100,0.00,,,0.00,Wunderground v.1.15,2013-12-22 15:20:00,
2013-12-22 10:30:00,80.5,80.5,30.04,SE,126,9.0,16.0,100,0.00,,,0.00,Wunderground v.1.15,2013-12-22 15:30:00,
2013-12-22 10:35:00,80.7,80.7,30.04,ESE,113,8.0,16.0,100,0.00,,,0.00,Wunderground v.1.15,2013-12-22 15:35:00,
2013-12-22 10:40:00,80.5,80.5,30.04,East,88,8.0,11.0,100,0.00,,,0.00,Wunderground v.1.15,2013-12-22 15:40:00,
2013-12-22 10:45:00,80.5,80.5,30.04,ESE,110,9.0,11.0,100,0.00,,,0.00,Wunderground v.1.15,2013-12-22 15:45:00,
2013-12-22 10:55:00,80.1,80.1,30.04,ESE,121,10.0,10.0,100,0.00,,,0.00,Wunderground v.1.15,2013-12-22 15:55:00,
2013-12-22 11:00:00,80.3,80.3,30.03,SE,124,10.0,16.0,100,0.00,,,0.00,Wunderground v.1.15,2013-12-22 16:00:00,
2013-12-22 11:05:00,80.5,80.5,30.03,SE,136,9.0,16.0,100,0.00,,,0.00,Wunderground v.1.15,2013-12-22 16:05:00,
2013-12-22 11:15:00,80.5,80.5,30.03,SE,126,8.0,10.0,100,0.00,,,0.00,Wunderground v.1.15,2013-12-22 16:15:00,
2013-12-22 11:20:00,80.7,80.7,30.03,SE,127,9.0,12.0,100,0.00,,,0.00,Wunderground v.1.15,2013-12-22 16:20:00,
2013-12-22 11:25:00,80.7,80.7,30.03,ESE,112,8.0,12.0,100,0.00,,,0.00,Wunderground v.1.15,2013-12-22 16:25:00,
2013-12-22 11:35:00,80.7,80.7,30.02,ESE,121,7.0,10.0,100,0.00,,,0.00,Wunderground v.1.15,2013-12-22 16:35:00,
2013-12-22 11:40:00,80.9,80.9,30.02,SE,126,8.0,8.0,100,0.00,,,0.00,Wunderground v.1.15,2013-12-22 16:40:00,
2013-12-22 11:45:00,81.1,81.1,30.02,ESE,113,7.0,8.0,100,0.00,,,0.00,Wunderground v.1.15,2013-12-22 16:45:00,
2013-12-22 11:55:00,81.1,81.1,30.02,ESE,117,5.0,7.0,100,0.00,,,0.00,Wunderground v.1.15,2013-12-22 16:55:00,
2013-12-22 12:00:00,80.7,80.7,30.01,ESE,104,8.0,14.0,100,0.00,,,0.00,Wunderground v.1.15,2013-12-22 17:00:00,
2013-12-22 12:05:00,80.9,80.9,30.01,SE,126,8.0,14.0,100,0.00,,,0.00,Wunderground v.1.15,2013-12-22 17:05:00,
2013-12-22 12:10:00,80.9,80.9,30.01,ESE,121,7.0,7.0,100,0.00,,,0.00,Wunderground v.1.15,2013-12-22 17:10:00,
2013-12-22 12:20:00,81.2,81.2,30.01,SE,127,6.0,7.0,100,0.00,,,0.00,Wunderground v.1.15,2013-12-22 17:20:00,
2013-12-22 12:25:00,81.2,81.2,30.01,East,88,6.0,8.0,100,0.00,,,0.00,Wunderground v.1.15,2013-12-22 17:25:00,
2013-12-22 12:30:00,80.7,80.7,30.00,SE,128,8.0,10.0,100,0.00,,,0.00,Wunderground v.1.15,2013-12-22 17:30:00,
2013-12-22 12:35:00,80.7,80.7,30.00,ESE,104,8.0,10.0,100,0.00,,,0.00,Wunderground v.1.15,2013-12-22 17:35:00,
2013-12-22 12:45:00,80.5,80.5,30.00,East,86,10.0,10.0,100,0.00,,,0.00,Wunderground v.1.15,2013-12-22 17:45:00,
2013-12-22 12:50:00,80.7,80.7,30.00,ESE,114,9.0,15.0,100,0.00,,,0.00,Wunderground v.1.15,2013-12-22 17:50:00,
2013-12-22 13:00:00,80.5,80.5,29.99,East,86,9.0,11.0,100,0.00,,,0.00,Wunderground v.1.15,2013-12-22 18:00:00,
2013-12-22 13:05:00,80.5,80.5,29.99,ESE,112,10.0,11.0,100,0.00,,,0.00,Wunderground v.1.15,2013-12-22 18:05:00,
2013-12-22 13:10:00,80.7,80.7,29.99,East,96,9.0,14.0,100,0.00,,,0.00,Wunderground v.1.15,2013-12-22 18:10:00,
2013-12-22 13:15:00,80.7,80.7,29.98,ESE,119,8.0,15.0,100,0.00,,,0.00,Wunderground v.1.15,2013-12-22 18:15:00,
2013-12-22 13:25:00,80.9,80.9,29.98,ESE,106,8.0,12.0,100,0.00,,,0.00,Wunderground v.1.15,2013-12-22 18:25:00,
2013-12-22 13:30:00,80.9,80.9,29.98,ESE,119,8.0,9.0,100,0.00,,,0.00,Wunderground v.1.15,2013-12-22 18:30:00,
2013-12-22 13:35:00,80.9,80.9,29.98,ESE,102,9.0,9.0,100,0.00,,,0.00,Wunderground v.1.15,2013-12-22 18:35:00,
2013-12-22 13:45:00,80.7,80.7,29.98,East,100,8.0,12.0,100,0.00,,,0.00,Wunderground v.1.15,2013-12-22 18:45:00,
2013-12-22 13:50:00,80.7,80.7,29.98,SE,137,8.0,8.0,100,0.00,,,0.00,Wunderground v.1.15,2013-12-22 18:50:00,
2013-12-22 13:55:00,80.7,80.7,29.98,ESE,109,8.0,11.0,100,0.00,,,0.00,Wunderground v.1.15,2013-12-22 18:55:00,
2013-12-22 14:05:00,80.1,80.1,29.98,ESE,120,9.0,12.0,100,0.00,,,0.00,Wunderground v.1.15,2013-12-22 19:05:00,
2013-12-22 14:10:00,80.1,80.1,29.98,ESE,116,9.0,9.0,100,0.00,,,0.00,Wunderground v.1.15,2013-12-22 19:10:00,
2013-12-22 14:15:00,80.1,80.1,29.98,ESE,109,8.0,9.0,100,0.00,,,0.00,Wunderground v.1.15,2013-12-22 19:15:00,
2013-12-22 14:25:00,80.7,80.7,29.98,ESE,120,7.0,8.0,100,0.00,,,0.00,Wunderground v.1.15,2013-12-22 19:25:00,
2013-12-22 14:30:00,80.7,80.7,29.98,SE,128,6.0,11.0,100,0.00,,,0.00,Wunderground v.1.15,2013-12-22 19:30:00,
2013-12-22 14:35:00,80.9,80.9,29.98,ESE,102,7.0,11.0,100,0.00,,,0.00,Wunderground v.1.15,2013-12-22 19:35:00,
2013-12-22 14:40:00,81.1,81.1,29.98,SE,128,4.0,10.0,100,0.00,,,0.00,Wunderground v.1.15,2013-12-22 19:40:00,
2013-12-22 14:45:00,80.9,80.9,29.98,ESE,112,6.0,10.0,100,0.00,,,0.00,Wunderground v.1.15,2013-12-22 19:45:00,
2013-12-22 14:55:00,80.1,80.1,29.98,East,90,7.0,10.0,100,0.00,,,0.00,Wunderground v.1.15,2013-12-22 19:55:00,
2013-12-22 15:00:00,79.9,79.9,29.98,ESE,119,7.0,8.0,100,0.00,,,0.00,Wunderground v.1.15,2013-12-22 20:00:00,
2013-12-22 15:10:00,79.9,79.9,29.98,ESE,113,7.0,8.0,100,0.00,,,0.00,Wunderground v.1.15,2013-12-22 20:10:00,
2013-12-22 15:15:00,79.9,79.9,29.98,ESE,109,6.0,10.0,100,0.00,,,0.00,Wunderground v.1.15,2013-12-22 20:15:00,
2013-12-22 15:20:00,79.9,79.9,29.98,SE,133,8.0,8.0,100,0.00,,,0.00,Wunderground v.1.15,2013-12-22 20:20:00,
2013-12-22 15:25:00,79.8,79.8,29.98,SE,124,8.0,8.0,100,0.00,,,0.00,Wunderground v.1.15,2013-12-22 20:25:00,
2013-12-22 15:35:00,79.8,79.8,29.98,ESE,107,7.0,8.0,100,0.00,,,0.00,Wunderground v.1.15,2013-12-22 20:35:00,
2013-12-22 15:40:00,79.9,79.9,29.98,East,86,7.0,7.0,100,0.00,,,0.00,Wunderground v.1.15,2013-12-22 20:40:00,
2013-12-22 15:45:00,80.1,80.1,29.98,SE,127,7.0,7.0,100,0.00,,,0.00,Wunderground v.1.15,2013-12-22 20:45:00,
2013-12-22 15:55:00,80.1,80.1,29.98,SE,128,5.0,8.0,100,0.00,,,0.00,Wunderground v.1.15,2013-12-22 20:55:00,
2013-12-22 16:00:00,79.9,79.9,29.99,East,97,6.0,6.0,100,0.00,,,0.00,Wunderground v.1.15,2013-12-22 21:00:00,
2013-12-22 16:05:00,80.1,80.1,29.99,ESE,107,5.0,6.0,100,0.00,,,0.00,Wunderground v.1.15,2013-12-22 21:05:00,
2013-12-22 16:15:00,79.9,79.9,29.98,ESE,116,5.0,6.0,100,0.00,,,0.00,Wunderground v.1.15,2013-12-22 21:15:00,
2013-12-22 16:20:00,79.9,79.9,29.98,East,95,5.0,5.0,100,0.00,,,0.00,Wunderground v.1.15,2013-12-22 21:20:00,
2013-12-22 16:25:00,79.9,79.9,29.98,ENE,78,5.0,5.0,100,0.00,,,0.00,Wunderground v.1.15,2013-12-22 21:25:00,
2013-12-22 16:31:00,79.8,79.8,29.99,ENE,76,5.0,5.0,100,0.00,,,0.00,Wunderground v.1.15,2013-12-22 21:31:00,
2013-12-22 16:40:00,79.6,79.6,29.99,ESE,117,5.0,5.0,100,0.00,,,0.00,Wunderground v.1.15,2013-12-22 21:40:00,
2013-12-22 16:45:00,79.6,79.6,29.99,ESE,116,6.0,6.0,100,0.00,,,0.00,Wunderground v.1.15,2013-12-22 21:45:00,
2013-12-22 16:50:00,79.4,79.4,29.99,ESE,107,6.0,6.0,100,0.00,,,0.00,Wunderground v.1.15,2013-12-22 21:50:00,
2013-12-22 17:00:00,79.4,79.4,29.99,SE,127,5.0,5.0,100,0.00,,,0.00,Wunderground v.1.15,2013-12-22 22:00:00,
2013-12-22 17:05:00,79.2,79.2,29.99,East,82,4.0,6.0,100,0.00,,,0.00,Wunderground v.1.15,2013-12-22 22:05:00,
2013-12-22 17:10:00,79.2,79.2,29.99,ESE,117,5.0,7.0,100,0.00,,,0.00,Wunderground v.1.15,2013-12-22 22:10:00,
2013-12-22 17:15:00,79.0,79.0,29.99,ESE,113,5.0,7.0,100,0.00,,,0.00,Wunderground v.1.15,2013-12-22 22:15:00,
2013-12-22 17:20:00,79.0,79.0,29.99,ESE,109,3.0,3.0,100,0.00,,,0.00,Wunderground v.1.15,2013-12-22 22:20:00,
2013-12-22 17:30:00,78.8,78.8,30.00,East,93,2.0,3.0,100,0.00,,,0.00,Wunderground v.1.15,2013-12-22 22:30:00,
2013-12-22 17:35:00,78.8,78.8,30.00,ESE,109,2.0,3.0,100,0.00,,,0.00,Wunderground v.1.15,2013-12-22 22:35:00,
2013-12-22 17:40:00,78.6,78.6,30.00,ESE,107,3.0,7.0,100,0.00,,,0.00,Wunderground v.1.15,2013-12-22 22:40:00,
2013-12-22 17:50:00,78.6,78.6,30.00,East,99,3.0,3.0,100,0.00,,,0.00,Wunderground v.1.15,2013-12-22 22:50:00,
2013-12-22 17:55:00,78.5,78.5,30.00,ESE,106,2.0,3.0,100,0.00,,,0.00,Wunderground v.1.15,2013-12-22 22:55:00,
2013-12-22 18:00:00,78.5,78.5,30.00,ESE,116,2.0,2.0,100,0.00,,,0.00,Wunderground v.1.15,2013-12-22 23:00:00,
2013-12-22 18:06:00,78.5,78.5,30.00,ESE,110,2.0,6.0,100,0.00,,,0.00,Wunderground v.1.15,2013-12-22 23:06:00,
2013-12-22 18:15:00,78.5,78.5,30.01,East,85,4.0,4.0,100,0.00,,,0.00,Wunderground v.1.15,2013-12-22 23:15:00,
2013-12-22 18:20:00,78.5,78.5,30.01,ENE,66,3.0,5.0,100,0.00,,,0.00,Wunderground v.1.15,2013-12-22 23:20:00,
2013-12-22 18:25:00,78.5,78.5,30.01,ESE,112,3.0,5.0,100,0.00,,,0.00,Wunderground v.1.15,2013-12-22 23:25:00,
2013-12-22 18:35:00,78.5,78.5,30.01,ENE,78,4.0,8.0,100,0.00,,,0.00,Wunderground v.1.15,2013-12-22 23:35:00,
2013-12-22 18:40:00,78.5,78.5,30.01,ENE,62,4.0,4.0,100,0.00,,,0.00,Wunderground v.1.15,2013-12-22 23:40:00,
2013-12-22 18:45:00,78.6,78.6,30.01,ESE,114,3.0,4.0,100,0.00,,,0.00,Wunderground v.1.15,2013-12-22 23:45:00,
2013-12-22 18:55:00,78.5,78.5,30.01,SE,124,3.0,3.0,100,0.00,,,0.00,Wunderground v.1.15,2013-12-22 23:55:00,
2013-12-22 19:00:00,78.5,78.5,30.02,East,100,4.0,6.0,100,0.00,,,0.00,Wunderground v.1.15,2013-12-23 00:00:00,
2013-12-22 19:05:00,78.5,78.5,30.02,ESE,117,5.0,6.0,100,0.00,,,0.00,Wunderground v.1.15,2013-12-23 00:05:00,
2013-12-22 19:10:00,78.5,78.5,30.02,SE,127,5.0,5.0,100,0.00,,,0.00,Wunderground v.1.15,2013-12-23 00:10:00,
2013-12-22 19:15:00,78.5,78.5,30.02,ENE,68,3.0,5.0,100,0.00,,,0.00,Wunderground v.1.15,2013-12-23 00:15:00,
2013-12-22 19:25:00,78.5,78.5,30.02,East,93,4.0,4.0,100,0.00,,,0.00,Wunderground v.1.15,2013-12-23 00:25:00,
2013-12-22 19:30:00,78.5,78.5,30.03,East,97,3.0,6.0,100,0.00,,,0.00,Wunderground v.1.15,2013-12-23 00:30:00,
2013-12-22 19:35:00,78.3,78.3,30.03,ESE,109,3.0,6.0,100,0.00,,,0.00,Wunderground v.1.15,2013-12-23 00:35:00,
2013-12-22 19:45:00,78.3,78.3,30.03,ESE,110,3.0,10.0,100,0.00,,,0.00,Wunderground v.1.15,2013-12-23 00:45:00,
2013-12-22 19:50:00,78.3,78.3,30.03,ESE,112,4.0,4.0,100,0.00,,,0.00,Wunderground v.1.15,2013-12-23 00:50:00,
2013-12-22 19:55:00,78.3,78.3,30.03,East,96,3.0,4.0,100,0.00,,,0.00,Wunderground v.1.15,2013-12-23 00:55:00,
2013-12-22 20:05:00,78.3,78.3,30.03,East,90,6.0,7.0,100,0.00,,,0.00,Wunderground v.1.15,2013-12-23 01:05:00,
2013-12-22 20:10:00,78.3,78.3,30.03,ESE,113,5.0,9.0,100,0.00,,,0.00,Wunderground v.1.15,2013-12-23 01:10:00,
2013-12-22 20:15:00,78.3,78.3,30.03,East,95,6.0,9.0,100,0.00,,,0.00,Wunderground v.1.15,2013-12-23 01:15:00,
2013-12-22 20:21:00,78.5,78.5,30.03,SE,124,5.0,5.0,100,0.00,,,0.00,Wunderground v.1.15,2013-12-23 01:21:00,
2013-12-22 20:30:00,78.3,78.3,30.03,ESE,102,5.0,7.0,100,0.00,,,0.00,Wunderground v.1.15,2013-12-23 01:30:00,
2013-12-22 20:35:00,78.3,78.3,30.03,ESE,107,6.0,7.0,100,0.00,,,0.00,Wunderground v.1.15,2013-12-23 01:35:00,
2013-12-22 20:45:00,78.3,78.3,30.03,SE,126,5.0,6.0,100,0.00,,,0.00,Wunderground v.1.15,2013-12-23 01:45:00,
2013-12-22 20:50:00,78.3,78.3,30.03,East,100,6.0,6.0,100,0.00,,,0.00,Wunderground v.1.15,2013-12-23 01:50:00,
2013-12-22 20:55:00,78.3,78.3,30.03,ESE,110,5.0,6.0,100,0.00,,,0.00,Wunderground v.1.15,2013-12-23 01:55:00,
2013-12-22 21:00:00,78.3,78.3,30.04,ESE,106,5.0,5.0,100,0.00,,,0.00,Wunderground v.1.15,2013-12-23 02:00:00,
2013-12-22 21:10:00,78.3,78.3,30.04,ESE,109,5.0,8.0,100,0.00,,,0.00,Wunderground v.1.15,2013-12-23 02:10:00,
2013-12-22 21:15:00,78.3,78.3,30.04,ESE,102,5.0,8.0,100,0.00,,,0.00,Wunderground v.1.15,2013-12-23 02:15:00,
2013-12-22 21:20:00,78.3,78.3,30.04,ESE,116,6.0,10.0,100,0.00,,,0.00,Wunderground v.1.15,2013-12-23 02:20:00,
2013-12-22 21:26:00,78.3,78.3,30.04,East,97,7.0,10.0,100,0.00,,,0.00,Wunderground v.1.15,2013-12-23 02:26:00,
2013-12-22 21:35:00,78.3,78.3,30.03,ENE,61,6.0,8.0,100,0.00,,,0.00,Wunderground v.1.15,2013-12-23 02:35:00,
2013-12-22 21:40:00,78.3,78.3,30.03,ESE,109,7.0,7.0,100,0.00,,,0.00,Wunderground v.1.15,2013-12-23 02:40:00,
2013-12-22 21:45:00,78.3,78.3,30.04,ENE,71,7.0,7.0,100,0.00,,,0.00,Wunderground v.1.15,2013-12-23 02:45:00,
2013-12-22 21:55:00,78.3,78.3,30.04,ESE,121,7.0,10.0,100,0.00,,,0.00,Wunderground v.1.15,2013-12-23 02:55:00,
2013-12-22 22:00:00,78.3,78.3,30.04,ESE,104,8.0,8.0,100,0.00,,,0.00,Wunderground v.1.15,2013-12-23 03:00:00,
2013-12-22 22:05:00,78.3,78.3,30.04,ENE,64,8.0,11.0,100,0.00,,,0.00,Wunderground v.1.15,2013-12-23 03:05:00,
2013-12-22 22:15:00,78.3,78.3,30.04,ESE,117,8.0,10.0,100,0.00,,,0.00,Wunderground v.1.15,2013-12-23 03:15:00,
2013-12-22 22:20:00,78.3,78.3,30.04,ESE,120,7.0,11.0,100,0.00,,,0.00,Wunderground v.1.15,2013-12-23 03:20:00,
2013-12-22 22:30:00,78.3,78.3,30.04,ESE,107,7.0,7.0,100,0.00,,,0.00,Wunderground v.1.15,2013-12-23 03:30:00,
2013-12-22 22:35:00,78.5,78.5,30.04,ESE,117,6.0,7.0,100,0.00,,,0.00,Wunderground v.1.15,2013-12-23 03:35:00,
2013-12-22 22:41:00,78.5,78.5,30.04,ESE,107,6.0,10.0,100,0.00,,,0.00,Wunderground v.1.15,2013-12-23 03:41:00,
2013-12-22 22:50:00,78.3,78.3,30.05,SSE,157,7.0,8.0,100,0.00,,,0.00,Wunderground v.1.15,2013-12-23 03:50:00,
2013-12-22 22:55:00,78.3,78.3,30.05,East,96,7.0,8.0,100,0.00,,,0.00,Wunderground v.1.15,2013-12-23 03:55:00,
2013-12-22 23:10:00,78.3,78.3,30.04,ESE,103,7.0,10.0,100,0.00,,,0.00,Wunderground v.1.15,2013-12-23 04:10:00,
2013-12-22 23:15:00,78.3,78.3,30.04,East,100,6.0,11.0,100,0.00,,,0.00,Wunderground v.1.15,2013-12-23 04:15:00,
2013-12-22 23:25:00,78.3,78.3,30.04,ESE,112,7.0,12.0,100,0.00,,,0.00,Wunderground v.1.15,2013-12-23 04:25:00,
2013-12-22 23:30:00,78.5,78.5,30.04,ESE,104,8.0,12.0,100,0.00,,,0.00,Wunderground v.1.15,2013-12-23 04:30:00,
2013-12-22 23:35:00,78.3,78.3,30.04,ESE,121,7.0,12.0,100,0.00,,,0.00,Wunderground v.1.15,2013-12-23 04:35:00,
2013-12-22 23:45:00,78.3,78.3,30.04,ESE,112,7.0,12.0,100,0.00,,,0.00,Wunderground v.1.15,2013-12-23 04:45:00,
2013-12-22 23:50:00,78.3,78.3,30.04,ESE,110,7.0,8.0,100,0.00,,,0.00,Wunderground v.1.15,2013-12-23 04:50:00,